Weather reports worldwide

Advertisment
Alghero, Italy (16520): temperature & dewpoint: 15.05.2019 05:00:00 - 21.05.2019 05:00:00 (CEST)Alghero, Italy (16520): wind speed: 15.05.2019 05:00:00 - 21.05.2019 05:00:00 (CEST)Alghero, Italy (16520): wind direction: 15.05.2019 05:00:00 - 21.05.2019 05:00:00 (CEST)Alghero, Italy (16520): reduced air pressure: 15.05.2019 05:00:00 - 21.05.2019 05:00:00 (CEST)Alghero, Italy (16520): visibility: 15.05.2019 05:00:00 - 21.05.2019 05:00:00 (CEST)Alghero, Italy (16520): precipitation: 15.05.2019 05:00:00 - 21.05.2019 05:00:00 (CEST)
Date & Time tt [°C] td [°C] ff [km/h] ff [kn] dd ppp [hPa] vv [km] rr [mm]
21.05.2019 05:00:00 14,2 13,6 11 6 WSW 1013,9 10 0,0
21.05.2019 04:00:00 15,0 15,0 15 8 SSW - 10 -
21.05.2019 03:00:00 15,0 15,0 15 8 SSW - 10 -
21.05.2019 02:00:00 15,3 14,9 15 8 SW 1014,4 10 -
21.05.2019 01:00:00 14,0 13,0 13 7 SSW - 10 -
21.05.2019 00:00:00 13,0 11,0 4 2 - - 10 -
20.05.2019 23:00:00 12,6 10,7 9 5 WSW 1014,6 10 0,0
20.05.2019 22:00:00 14,0 11,0 13 7 WSW - 10 -
20.05.2019 21:00:00 15,0 11,0 15 8 W - 10 -
20.05.2019 20:00:00 16,1 11,6 18 10 W 1013,3 10 -
20.05.2019 19:00:00 17,0 12,0 18 10 W - 10 -
20.05.2019 18:00:00 18,0 13,0 21 11 W - 10 -
20.05.2019 17:00:00 17,6 12,3 26 14 W 1012,6 10 0,0
20.05.2019 16:00:00 17,0 12,0 21 11 W - 10 -
20.05.2019 15:00:00 15,0 13,0 18 10 W - 10 -
20.05.2019 14:00:00 15,2 13,1 21 11 W 1011,9 10 -
20.05.2019 13:00:00 16,0 14,0 21 11 W - 10 -
20.05.2019 12:00:00 14,0 13,0 16 9 W - 10 -
20.05.2019 11:00:00 14,1 13,4 21 11 W 1010,4 6 0,0
20.05.2019 10:00:00 14,0 13,0 21 11 W - 9 -
20.05.2019 09:00:00 15,0 13,0 18 10 W - 10 -
20.05.2019 08:00:00 14,9 13,0 5 3 SW 1009,5 10 -
20.05.2019 07:00:00 12,0 11,0 9 5 S - 10 -
20.05.2019 06:00:00 12,0 11,0 8 4 WNW - 10 -
20.05.2019 05:00:00 12,0 11,3 4 2 - 1008,7 10 0,0
20.05.2019 04:00:00 13,0 12,0 4 2 - - 10 -
20.05.2019 03:00:00 13,0 11,0 2 1 - - 10 -
20.05.2019 02:00:00 12,8 10,8 8 4 WNW 1009,3 10 -
20.05.2019 01:00:00 13,0 12,0 11 6 W - 10 -
20.05.2019 00:00:00 14,0 12,0 4 2 - - 10 -
19.05.2019 23:00:00 13,9 11,8 4 2 - 1009,7 10 0,0
19.05.2019 22:00:00 14,0 12,0 9 5 WSW - 10 -
19.05.2019 21:00:00 16,0 12,0 13 7 SW - 10 -
19.05.2019 20:00:00 16,2 11,7 15 8 WSW 1009,0 10 -
19.05.2019 19:00:00 17,0 12,0 21 11 SW - 10 -
19.05.2019 18:00:00 18,0 12,0 18 10 WSW - 10 -
19.05.2019 17:00:00 17,7 10,4 21 11 WSW 1008,7 10 0,0
19.05.2019 16:00:00 18,0 10,0 22 12 W - 10 -
19.05.2019 15:00:00 19,0 10,0 16 9 W - 10 -
19.05.2019 14:00:00 18,4 10,5 24 13 WSW 1008,4 10 -
19.05.2019 13:00:00 17,0 11,0 21 11 W - 10 -
19.05.2019 12:00:00 18,0 11,0 16 9 WSW - 10 -
19.05.2019 11:00:00 17,0 8,7 13 7 SW 1008,0 10 0,0
19.05.2019 10:00:00 16,0 12,0 13 7 WSW - 10 -
19.05.2019 09:00:00 13,0 12,0 5 3 S - 10 -
19.05.2019 08:00:00 11,1 10,2 15 8 WNW 1008,1 5 -
19.05.2019 07:00:00 13,0 12,0 8 4 WSW - 10 -
19.05.2019 06:00:00 12,0 11,0 5 3 SW - 10 -
19.05.2019 05:00:00 11,5 11,0 4 2 SSE 1007,7 10 0,0
19.05.2019 04:00:00 11,0 10,0 4 2 - - 10 -
19.05.2019 03:00:00 11,0 10,0 2 1 - - 10 -
19.05.2019 02:00:00 13,0 10,9 4 2 - 1008,7 10 -
19.05.2019 01:00:00 13,0 11,0 5 3 W - 10 -
19.05.2019 00:00:00 14,0 12,0 5 3 WNW - 10 -
18.05.2019 23:00:00 14,0 11,8 9 5 WNW 1009,4 10 0,0
18.05.2019 22:00:00 14,0 13,0 4 2 - - 10 -
18.05.2019 21:00:00 15,0 12,0 9 5 WNW - 10 -
18.05.2019 20:00:00 16,0 12,0 11 6 WNW - 10 -
18.05.2019 19:00:00 16,0 12,0 18 10 WNW - 10 -
18.05.2019 18:00:00 16,0 12,0 15 8 NW - 10 -
18.05.2019 17:00:00 16,6 12,7 13 7 NW 1006,9 10 0,0
18.05.2019 16:00:00 17,0 12,0 15 8 NW - 10 -
18.05.2019 15:00:00 18,0 13,0 18 10 NW - 10 -
18.05.2019 14:00:00 16,7 13,1 21 11 W 1005,6 10 -
18.05.2019 13:00:00 18,0 13,0 21 11 W - 10 -
18.05.2019 12:00:00 18,0 13,0 24 13 W - 10 -
18.05.2019 11:00:00 16,7 13,2 18 10 WNW 1004,8 10 0,0
18.05.2019 10:00:00 16,0 13,0 21 11 W - 10 -
18.05.2019 09:00:00 15,0 12,0 16 9 WNW - 10 -
18.05.2019 08:00:00 15,0 12,8 15 8 WNW 1003,1 10 -
18.05.2019 07:00:00 15,0 13,0 13 7 WNW - 10 -
18.05.2019 06:00:00 15,0 14,0 8 4 NW - 10 -
18.05.2019 05:00:00 13,8 13,4 5 3 SSW 1001,2 10 0,0
18.05.2019 04:00:00 15,0 14,0 9 5 SSW - 10 -
18.05.2019 03:00:00 15,0 15,0 15 8 SSW - 10 -
18.05.2019 02:00:00 15,1 14,1 21 11 S 1001,4 10 -
18.05.2019 01:00:00 16,0 14,0 22 12 SSW - 10 -
18.05.2019 00:00:00 15,0 13,0 15 8 SSW - 10 -
17.05.2019 23:00:00 15,2 12,8 22 12 SW 1002,6 10 0,0
17.05.2019 22:00:00 15,0 14,0 22 12 SW - 10 -
17.05.2019 21:00:00 17,0 15,0 28 15 SSW - 10 -
17.05.2019 20:00:00 17,5 14,3 29 16 SSW 1001,4 10 -
17.05.2019 19:00:00 18,0 14,0 31 17 S - 10 -
17.05.2019 18:00:00 17,0 14,0 24 13 SSW - 10 -
17.05.2019 17:00:00 17,9 13,5 26 14 SSW 1002,5 10 0,0
17.05.2019 16:00:00 21,0 11,0 24 13 SW - 10 -
17.05.2019 15:00:00 22,0 11,0 15 8 WNW - 10 -
17.05.2019 14:00:00 22,1 12,2 9 5 SW 1002,4 10 -
17.05.2019 13:00:00 23,0 9,0 16 9 ESE - 10 -
17.05.2019 12:00:00 21,0 10,0 8 4 - - 10 -
17.05.2019 11:00:00 19,2 9,8 9 5 SW 1004,7 10 0,0
17.05.2019 10:00:00 18,0 11,0 4 2 - - 10 -
17.05.2019 09:00:00 15,0 11,0 9 5 ENE - 10 -
17.05.2019 08:00:00 12,1 9,6 5 3 N 1007,1 10 -
17.05.2019 07:00:00 9,0 8,0 8 4 N - 10 -
17.05.2019 06:00:00 8,0 7,0 5 3 N - 10 -
17.05.2019 05:00:00 7,8 7,0 4 2 N 1008,1 10 0,0
17.05.2019 04:00:00 8,0 7,0 8 4 NE - 10 -
17.05.2019 03:00:00 9,0 8,0 5 3 NNE - 10 -
17.05.2019 02:00:00 9,3 8,3 2 1 - 1010,1 10 -
17.05.2019 01:00:00 11,0 9,0 5 3 N - 10 -
17.05.2019 00:00:00 11,0 10,0 4 2 - - 10 -
16.05.2019 23:00:00 11,1 9,4 5 3 NNE 1011,5 10 0,0
16.05.2019 22:00:00 12,0 9,0 5 3 N - 10 -
16.05.2019 21:00:00 14,0 10,0 9 5 WNW - 10 -
16.05.2019 20:00:00 16,6 9,4 5 3 W 1011,7 10 -
16.05.2019 19:00:00 18,0 10,0 11 6 WNW - 10 -
16.05.2019 18:00:00 18,0 9,0 11 6 NW - 10 -
16.05.2019 17:00:00 17,9 8,7 15 8 WNW 1012,1 10 0,0
16.05.2019 16:00:00 18,0 8,0 16 9 WNW - 10 -
16.05.2019 15:00:00 19,0 9,0 15 8 NW - 10 -
16.05.2019 14:00:00 17,3 9,5 11 6 NNW 1013,0 10 -
16.05.2019 13:00:00 18,0 10,0 8 4 NE - 10 -
16.05.2019 12:00:00 17,0 8,0 11 6 NNW - 10 -
16.05.2019 11:00:00 17,1 8,3 16 9 NE 1013,1 10 0,0
16.05.2019 10:00:00 16,0 9,0 13 7 NE - 10 -
16.05.2019 09:00:00 13,0 9,0 2 1 - - 10 -
16.05.2019 08:00:00 9,6 7,8 2 1 - 1013,0 10 -
16.05.2019 07:00:00 5,0 4,0 2 1 - - 10 -
16.05.2019 06:00:00 4,0 4,0 2 1 - - 10 -
16.05.2019 05:00:00 4,7 4,3 4 2 - 1011,8 10 0,0
16.05.2019 04:00:00 6,0 5,0 4 2 - - 10 -
16.05.2019 03:00:00 6,0 5,0 4 2 - - 10 -
16.05.2019 02:00:00 5,8 5,2 5 3 ENE 1012,1 10 -
16.05.2019 01:00:00 20,0 20,0 5 3 NW - 10 -
16.05.2019 00:00:00 8,0 6,0 9 5 N - 10 -
15.05.2019 23:00:00 9,2 5,9 8 4 NNW 1012,3 10 0,0
15.05.2019 22:00:00 10,0 6,0 8 4 N - 10 -
15.05.2019 21:00:00 11,0 6,0 11 6 N - 10 -
15.05.2019 20:00:00 12,4 5,0 21 11 NNE 1011,2 10 -
15.05.2019 19:00:00 26,0 20,0 11 6 WNW - 10 -
15.05.2019 18:00:00 27,0 19,0 9 5 W - 10 -
15.05.2019 17:00:00 14,0 7,5 29 16 NE 1009,7 10 0,0
15.05.2019 16:00:00 13,0 8,0 37 20 NE - 10 -
15.05.2019 15:00:00 13,0 10,0 28 15 ENE - 10 -
15.05.2019 14:00:00 11,0 10,1 28 15 NE 1008,2 10 -
15.05.2019 13:00:00 11,0 9,0 21 11 NNE - 6 -
15.05.2019 12:00:00 14,0 11,0 11 6 - - 10 -
15.05.2019 11:00:00 14,4 12,6 16 9 S 1008,5 8 0,0
15.05.2019 10:00:00 15,0 12,0 21 11 S - 10 -
15.05.2019 09:00:00 14,0 12,0 2 1 - - 10 -
15.05.2019 08:00:00 12,4 10,8 2 1 - 1010,5 10 -
15.05.2019 07:00:00 9,0 9,0 2 1 - - 10 -
15.05.2019 06:00:00 9,0 9,0 4 2 - - 10 -
15.05.2019 05:00:00 8,5 8,0 4 2 - 1011,8 10 0,0

tt = temperature
td = dewpoint
ff = wind speed
dd = wind direction
ppp = reduced air pressure
vv = visibility
rr = precipitation

Next stations